Location: Sungai Liu
(2.3667°N, 113.8667°E)
Time: 12:16:47
(UTC+00:00)

Delta 198 - Pass Details

Date: 20 May 2022
Orbit: 457 x 1010 km, 24.8° (Epoch: 04 July)

Event Time Altitude Azimuth Distance (km) Brightness Sun altitude
Exits shadow 20:30:30 84° 184° (S) 674 3.6 -24.9°
Maximum altitude 20:30:35 85° 154° (SSE) 675 3.6 -24.9°
Drops below altitude 10° 20:36:00 10° 65° (ENE) 2,291 7.6 -23.7°
Sets 20:38:43 0° 65° (ENE) 3,317 8.8 -23.0°
